,,,PA_Meas_PMT16A,,PR_Meas_QMR101_102,,RH_Meas_QMH101,,SR_Meas_QMS101,,TA_Meas_QMH101,,GenWind,,GenWind,
date,time,status,PA,status,PR,status,RH,status,SR,status,TA,status,DirAvg,status,SpdAvg,
2010-10-05, 00:00:04,VALID,1008.4,VALID,0,VALID,103.184,VALID,0,VALID,25.0759,VALID,334,VALID,0,
2010-10-05, 00:01:04,VALID,1008.39,VALID,0,VALID,103.184,VALID,0.105969,VALID,25.0759,VALID,334,VALID,0.00351562,
2010-10-05, 00:02:04,VALID,1008.38,VALID,0,VALID,103.192,VALID,0,VALID,25.0778,VALID,334,VALID,0,
2010-10-05, 00:03:04,VALID,1008.39,VALID,0,VALID,103.199,VALID,0.105969,VALID,25.0564,VALID,334,VALID,0,
2010-10-05, 00:04:04,VALID,1008.38,VALID,0,VALID,103.207,VALID,0,VALID,25.0583,VALID,334,VALID,0,
2010-10-05, 00:05:04,VALID,1008.41,VALID,0,VALID,103.192,VALID,0,VALID,25.0369,VALID,334,VALID,0,
2010-10-05, 00:06:04,VALID,1008.39,VALID,0,VALID,103.192,VALID,0.105969,VALID,25.0174,VALID,334,VALID,0.194922,
2010-10-05, 00:07:04,VALID,1008.38,VALID,0,VALID,103.215,VALID,0,VALID,24.9998,VALID,334,VALID,0,
2010-10-05, 00:08:04,VALID,1008.36,VALID,0,VALID,103.215,VALID,0,VALID,24.9803,VALID,334,VALID,0,
2010-10-05, 00:09:04,VALID,1008.38,VALID,0,VALID,103.199,VALID,0,VALID,25.0017,VALID,334,VALID,0,
2010-10-05, 00:10:04,VALID,1008.35,VALID,0,VALID,103.207,VALID,0,VALID,24.9608,VALID,334,VALID,0,
2010-10-05, 00:11:04,VALID,1008.29,VALID,0,VALID,103.222,VALID,0,VALID,24.9608,VALID,334,VALID,0,
2010-10-05, 00:12:04,VALID,1008.26,VALID,0,VALID,103.169,VALID,0,VALID,24.9413,VALID,334,VALID,0,
2010-10-05, 00:13:04,VALID,1008.27,VALID,0,VALID,103.199,VALID,0,VALID,24.9413,VALID,334,VALID,0,
2010-10-05, 00:14:04,VALID,1008.24,VALID,0,VALID,103.222,VALID,0,VALID,24.9218,VALID,334,VALID,0,
2010-10-05, 00:15:04,VALID,1008.25,VALID,0,VALID,103.215,VALID,0,VALID,24.9218,VALID,334,VALID,0,
2010-10-05, 00:16:04,VALID,1008.25,VALID,0,VALID,103.207,VALID,0,VALID,24.9432,VALID,334,VALID,0,
2010-10-05, 00:17:04,VALID,1008.23,VALID,0,VALID,103.207,VALID,0,VALID,24.8828,VALID,334,VALID,0,
2010-10-05, 00:18:04,VALID,1008.24,VALID,0,VALID,103.199,VALID,0,VALID,24.8828,VALID,334,VALID,0,
2010-10-05, 00:19:04,VALID,1008.19,VALID,0,VALID,103.215,VALID,0,VALID,24.8828,VALID,334,VALID,0,
2010-10-05, 00:20:04,VALID,1008.12,VALID,0,VALID,103.192,VALID,0,VALID,24.8633,VALID,334,VALID,0,
2010-10-05, 00:21:04,VALID,1008.04,VALID,0,VALID,103.215,VALID,0,VALID,24.8633,VALID,334,VALID,0,
2010-10-05, 00:22:04,VALID,1008,VALID,0,VALID,103.192,VALID,0,VALID,24.8438,VALID,334,VALID,0,
2010-10-05, 00:23:04,VALID,1007.93,VALID,0,VALID,103.215,VALID,0,VALID,24.8244,VALID,334,VALID,0,
2010-10-05, 00:24:04,VALID,1007.87,VALID,0,VALID,103.207,VALID,0,VALID,24.8244,VALID,334,VALID,0,
2010-10-05, 00:25:04,VALID,1007.8,VALID,0,VALID,103.215,VALID,0,VALID,24.8244,VALID,334,VALID,0,
2010-10-05, 00:26:04,VALID,1007.74,VALID,0,VALID,103.184,VALID,0,VALID,24.8244,VALID,334,VALID,0,
2010-10-05, 00:27:04,VALID,1007.73,VALID,0,VALID,103.184,VALID,0,VALID,24.8438,VALID,334,VALID,0,
2010-10-05, 00:28:04,VALID,1007.68,VALID,0,VALID,103.199,VALID,0,VALID,24.8457,VALID,334,VALID,0,
2010-10-05, 00:29:04,VALID,1007.67,VALID,0,VALID,103.184,VALID,0,VALID,24.8438,VALID,334,VALID,0,
2010-10-05, 00:30:04,VALID,1007.6,VALID,0,VALID,103.192,VALID,0,VALID,24.8438,VALID,334,VALID,0,
2010-10-05, 00:31:04,VALID,1007.58,VALID,0,VALID,103.184,VALID,0,VALID,24.8244,VALID,334,VALID,0,
2010-10-05, 00:32:04,VALID,1007.57,VALID,0,VALID,103.176,VALID,0,VALID,24.8438,VALID,334,VALID,0,
2010-10-05, 00:33:04,VALID,1007.5,VALID,0,VALID,103.192,VALID,0,VALID,24.8438,VALID,334,VALID,0,
2010-10-05, 00:34:04,VALID,1007.49,VALID,0,VALID,103.199,VALID,0,VALID,24.8244,VALID,334,VALID,0,
2010-10-05, 00:35:04,VALID,1007.41,VALID,0,VALID,103.207,VALID,0,VALID,24.8244,VALID,334,VALID,0,
2010-10-05, 00:36:04,VALID,1007.38,VALID,0,VALID,103.192,VALID,0,VALID,24.8262,VALID,334,VALID,0,
2010-10-05, 00:37:04,VALID,1007.37,VALID,0,VALID,103.184,VALID,0,VALID,24.8049,VALID,334,VALID,0,
2010-10-05, 00:38:04,VALID,1007.36,VALID,0,VALID,103.192,VALID,0,VALID,24.8049,VALID,334,VALID,0,
2010-10-05, 00:39:04,VALID,1007.38,VALID,0,VALID,103.192,VALID,0,VALID,24.7854,VALID,334,VALID,0,
2010-10-05, 00:40:04,VALID,1007.37,VALID,0,VALID,103.161,VALID,0,VALID,24.8049,VALID,334,VALID,0,
2010-10-05, 00:41:04,VALID,1007.4,VALID,0,VALID,103.161,VALID,0,VALID,24.8244,VALID,294,VALID,0.183984,
2010-10-05, 00:42:04,VALID,1007.43,VALID,0,VALID,103.161,VALID,0,VALID,24.8438,VALID,278,VALID,0,
2010-10-05, 00:43:04,VALID,1007.49,VALID,0,VALID,103.207,VALID,0,VALID,24.8438,VALID,278,VALID,0,
2010-10-05, 00:44:04,VALID,1007.5,VALID,0,VALID,103.207,VALID,0,VALID,24.8438,VALID,278,VALID,0,
2010-10-05, 00:45:04,VALID,1007.57,VALID,0,VALID,103.199,VALID,0,VALID,24.8244,VALID,277,VALID,0,
2010-10-05, 00:46:04,VALID,1007.6,VALID,0,VALID,103.23,VALID,0,VALID,24.8049,VALID,276,VALID,0,
2010-10-05, 00:47:04,VALID,1007.6,VALID,0,VALID,103.245,VALID,0,VALID,24.8262,VALID,275,VALID,0,
2010-10-05, 00:48:04,VALID,1007.59,VALID,0,VALID,103.253,VALID,0,VALID,24.7854,VALID,275,VALID,0,
2010-10-05, 00:49:04,VALID,1007.62,VALID,0,VALID,103.26,VALID,0,VALID,24.7854,VALID,275,VALID,0,
2010-10-05, 00:50:04,VALID,1007.6,VALID,0,VALID,103.26,VALID,0,VALID,24.7659,VALID,275,VALID,0,
2010-10-05, 00:51:04,VALID,1007.61,VALID,0,VALID,103.283,VALID,0,VALID,24.7269,VALID,276,VALID,0,
2010-10-05, 00:52:04,VALID,1007.62,VALID,0,VALID,103.298,VALID,0,VALID,24.7074,VALID,276,VALID,0,
2010-10-05, 00:53:04,VALID,1007.63,VALID,0,VALID,103.276,VALID,0,VALID,24.6879,VALID,276,VALID,0,
2010-10-05, 00:54:04,VALID,1007.63,VALID,0,VALID,103.23,VALID,0,VALID,24.6879,VALID,276,VALID,0,
2010-10-05, 00:55:04,VALID,1007.64,VALID,0,VALID,103.23,VALID,0,VALID,24.7074,VALID,276,VALID,0,
2010-10-05, 00:56:04,VALID,1007.66,VALID,0,VALID,103.23,VALID,0,VALID,24.7269,VALID,276,VALID,0.000390625,
2010-10-05, 00:57:04,VALID,1007.7,VALID,0,VALID,103.215,VALID,0,VALID,24.7464,VALID,276,VALID,0.256641,
2010-10-05, 00:58:04,VALID,1007.73,VALID,0,VALID,103.222,VALID,0,VALID,24.7678,VALID,276,VALID,0,
2010-10-05, 00:59:04,VALID,1007.74,VALID,0,VALID,103.215,VALID,0,VALID,24.7464,VALID,276,VALID,0,
2010-10-05, 01:00:04,VALID,1007.77,VALID,0,VALID,103.215,VALID,0,VALID,24.7464,VALID,276,VALID,0,
2010-10-05, 01:01:04,VALID,1007.79,VALID,0,VALID,103.207,VALID,0,VALID,24.7659,VALID,69,VALID,0,
2010-10-05, 01:02:04,VALID,1007.78,VALID,0,VALID,103.199,VALID,0,VALID,24.7659,VALID,69,VALID,0,
2010-10-05, 01:03:04,VALID,1007.8,VALID,0,VALID,103.199,VALID,0,VALID,24.8049,VALID,69,VALID,0,
2010-10-05, 01:04:04,VALID,1007.85,VALID,0,VALID,103.169,VALID,0,VALID,24.8244,VALID,69,VALID,0,
2010-10-05, 01:05:04,VALID,1007.86,VALID,0,VALID,103.184,VALID,0,VALID,24.8438,VALID,80,VALID,0,
2010-10-05, 01:06:04,VALID,1007.83,VALID,0,VALID,103.199,VALID,0,VALID,24.8633,VALID,63,VALID,0.407031,
2010-10-05, 01:07:04,VALID,1007.81,VALID,0,VALID,103.192,VALID,0,VALID,24.8438,VALID,67,VALID,0,
2010-10-05, 01:08:04,VALID,1007.79,VALID,0,VALID,103.215,VALID,0,VALID,24.8633,VALID,72,VALID,0.510547,
2010-10-05, 01:09:04,VALID,1007.81,VALID,0,VALID,103.207,VALID,0,VALID,24.8828,VALID,58,VALID,0.452344,
2010-10-05, 01:10:04,VALID,1007.8,VALID,0,VALID,103.222,VALID,0,VALID,24.8633,VALID,28,VALID,0.376172,
2010-10-05, 01:11:04,VALID,1007.77,VALID,0,VALID,103.222,VALID,0,VALID,24.8828,VALID,55,VALID,0.530469,
2010-10-05, 01:12:04,VALID,1007.76,VALID,0,VALID,103.215,VALID,0,VALID,24.8828,VALID,55,VALID,0.16875,
2010-10-05, 01:13:04,VALID,1007.75,VALID,0,VALID,103.23,VALID,0,VALID,24.8828,VALID,55,VALID,0,
2010-10-05, 01:14:04,VALID,1007.74,VALID,0,VALID,103.245,VALID,0,VALID,24.9023,VALID,55,VALID,0,
2010-10-05, 01:15:04,VALID,1007.7,VALID,0,VALID,103.199,VALID,0,VALID,24.8828,VALID,55,VALID,0,
2010-10-05, 01:16:04,VALID,1007.71,VALID,0,VALID,103.222,VALID,0,VALID,24.9023,VALID,55,VALID,0,
2010-10-05, 01:17:04,VALID,1007.71,VALID,0,VALID,103.207,VALID,0,VALID,24.9023,VALID,55,VALID,0,
2010-10-05, 01:18:04,VALID,1007.69,VALID,0,VALID,103.207,VALID,0,VALID,24.9023,VALID,55,VALID,0,
2010-10-05, 01:19:04,VALID,1007.69,VALID,0,VALID,103.215,VALID,0,VALID,24.9023,VALID,55,VALID,0,
2010-10-05, 01:20:04,VALID,1007.72,VALID,0,VALID,103.237,VALID,0,VALID,24.8828,VALID,55,VALID,0,
2010-10-05, 01:21:04,VALID,1007.74,VALID,0,VALID,103.245,VALID,0,VALID,24.8633,VALID,55,VALID,0,
2010-10-05, 01:22:04,VALID,1007.74,VALID,0,VALID,103.23,VALID,0,VALID,24.8438,VALID,55,VALID,0,
2010-10-05, 01:23:04,VALID,1007.72,VALID,0,VALID,103.222,VALID,0,VALID,24.8438,VALID,55,VALID,0,
2010-10-05, 01:24:04,VALID,1007.71,VALID,0,VALID,103.222,VALID,0,VALID,24.8438,VALID,55,VALID,0.0449219,
2010-10-05, 01:25:04,VALID,1007.7,VALID,0,VALID,103.207,VALID,0,VALID,24.8633,VALID,55,VALID,0,
2010-10-05, 01:26:04,VALID,1007.72,VALID,0,VALID,103.192,VALID,0,VALID,24.9023,VALID,55,VALID,0,
2010-10-05, 01:27:04,VALID,1007.69,VALID,0,VALID,103.176,VALID,0,VALID,24.9218,VALID,106,VALID,0,
2010-10-05, 01:28:04,VALID,1007.67,VALID,0,VALID,103.192,VALID,0,VALID,24.9218,VALID,96,VALID,0.588281,
2010-10-05, 01:29:04,VALID,1007.64,VALID,0,VALID,103.199,VALID,0,VALID,24.9432,VALID,94,VALID,0.596094,
2010-10-05, 01:30:04,VALID,1007.59,VALID,0,VALID,103.215,VALID,0,VALID,24.9608,VALID,83,VALID,0.617188,
2010-10-05, 01:31:04,VALID,1007.59,VALID,0,VALID,103.222,VALID,0,VALID,24.9413,VALID,82,VALID,0.607813,
2010-10-05, 01:32:04,VALID,1007.59,VALID,0,VALID,103.222,VALID,0,VALID,24.9413,VALID,82,VALID,0.2625,
2010-10-05, 01:33:04,VALID,1007.54,VALID,0,VALID,103.23,VALID,0,VALID,24.9413,VALID,82,VALID,0.485547,
2010-10-05, 01:34:04,VALID,1007.51,VALID,0,VALID,103.276,VALID,0,VALID,24.9413,VALID,82,VALID,0.0375,
2010-10-05, 01:35:04,VALID,1007.51,VALID,0,VALID,103.237,VALID,0,VALID,24.9432,VALID,82,VALID,0,
2010-10-05, 01:36:04,VALID,1007.52,VALID,0,VALID,103.253,VALID,0,VALID,24.9218,VALID,82,VALID,0.278906,
2010-10-05, 01:37:04,VALID,1007.49,VALID,0,VALID,103.245,VALID,0,VALID,24.9023,VALID,43,VALID,0.379297,
2010-10-05, 01:38:04,VALID,1007.45,VALID,0,VALID,103.23,VALID,0.105969,VALID,24.9023,VALID,43,VALID,0.375,
2010-10-05, 01:39:04,VALID,1007.44,VALID,0,VALID,103.245,VALID,0,VALID,24.8809,VALID,34,VALID,0.0722656,
2010-10-05, 01:40:04,VALID,1007.42,VALID,0,VALID,103.245,VALID,0.105969,VALID,24.8809,VALID,34,VALID,0,
2010-10-05, 01:41:04,VALID,1007.4,VALID,0,VALID,103.253,VALID,0.105969,VALID,24.8615,VALID,34,VALID,0.0597656,
2010-10-05, 01:42:04,VALID,1007.42,VALID,0,VALID,103.23,VALID,0,VALID,24.8615,VALID,34,VALID,0,
2010-10-05, 01:43:04,VALID,1007.44,VALID,0,VALID,103.245,VALID,0.105969,VALID,24.8615,VALID,34,VALID,0,
2010-10-05, 01:44:04,VALID,1007.46,VALID,0,VALID,103.237,VALID,0.105969,VALID,24.842,VALID,34,VALID,0.144922,
2010-10-05, 01:45:04,VALID,1007.47,VALID,0,VALID,103.222,VALID,0.105969,VALID,24.803,VALID,34,VALID,0.114844,
2010-10-05, 01:46:04,VALID,1007.49,VALID,0,VALID,103.253,VALID,0.105969,VALID,24.8244,VALID,55,VALID,0.526563,
2010-10-05, 01:47:04,VALID,1007.5,VALID,0,VALID,103.253,VALID,0.105969,VALID,24.7835,VALID,60,VALID,0.319922,
2010-10-05, 01:48:04,VALID,1007.55,VALID,0,VALID,103.237,VALID,0,VALID,24.764,VALID,60,VALID,0.322266,
2010-10-05, 01:49:04,VALID,1007.57,VALID,0,VALID,103.253,VALID,0.105969,VALID,24.764,VALID,60,VALID,0.142578,
2010-10-05, 01:50:04,VALID,1007.62,VALID,0,VALID,103.237,VALID,0,VALID,24.7445,VALID,65,VALID,0.500391,
2010-10-05, 01:51:04,VALID,1007.65,VALID,0,VALID,103.253,VALID,0.105969,VALID,24.7445,VALID,91,VALID,0.540625,
2010-10-05, 01:52:04,VALID,1007.67,VALID,0,VALID,103.245,VALID,0.105969,VALID,24.7445,VALID,96,VALID,0.652344,
2010-10-05, 01:53:04,VALID,1007.68,VALID,0,VALID,103.268,VALID,0.105969,VALID,24.7445,VALID,64,VALID,0.586328,
2010-10-05, 01:54:04,VALID,1007.71,VALID,0,VALID,103.253,VALID,0.105969,VALID,24.7445,VALID,84,VALID,0.980469,
2010-10-05, 01:55:04,VALID,1007.69,VALID,0,VALID,103.245,VALID,0.105969,VALID,24.764,VALID,63,VALID,0.0984375,
2010-10-05, 01:56:04,VALID,1007.68,VALID,0,VALID,103.23,VALID,0.105969,VALID,24.7835,VALID,80,VALID,0.832031,
2010-10-05, 01:57:04,VALID,1007.74,VALID,0,VALID,103.207,VALID,0.105969,VALID,24.7835,VALID,49,VALID,0.470703,
2010-10-05, 01:58:04,VALID,1007.84,VALID,0,VALID,103.169,VALID,0.105969,VALID,24.803,VALID,75,VALID,0.921484,
2010-10-05, 01:59:04,VALID,1008,VALID,0,VALID,103.161,VALID,0,VALID,24.803,VALID,82,VALID,1.11055,
2010-10-05, 02:00:04,VALID,1008.11,VALID,0,VALID,103.146,VALID,0.105969,VALID,24.8011,VALID,74,VALID,1.75703,
2010-10-05, 02:01:04,VALID,1008.02,VALID,0,VALID,102.986,VALID,0.105969,VALID,24.803,VALID,79,VALID,3.94023,
2010-10-05, 02:02:04,VALID,1008.05,VALID,0,VALID,102.048,VALID,0.105969,VALID,24.8809,VALID,101,VALID,2.67656,
2010-10-05, 02:03:04,VALID,1008.06,VALID,0,VALID,99.4474,VALID,0.105969,VALID,24.8809,VALID,83,VALID,3.57969,
2010-10-05, 02:04:04,VALID,1008.1,VALID,0,VALID,89.1146,VALID,0.105969,VALID,24.9199,VALID,102,VALID,3.18867,
2010-10-05, 02:05:04,VALID,1008.09,VALID,0,VALID,86.0338,VALID,0.105969,VALID,24.8809,VALID,96,VALID,4.30156,
2010-10-05, 02:06:04,VALID,1008.05,VALID,0,VALID,85.3246,VALID,0.105969,VALID,24.8615,VALID,43,VALID,2.33281,
2010-10-05, 02:07:04,VALID,1008.06,VALID,0,VALID,85.0577,VALID,0.105969,VALID,24.8225,VALID,60,VALID,3.90078,
2010-10-05, 02:08:04,VALID,1008.09,VALID,0,VALID,85.6601,VALID,0,VALID,24.7835,VALID,70,VALID,2.46094,
2010-10-05, 02:09:04,VALID,1008.11,VALID,0,VALID,86.2015,VALID,0,VALID,24.7269,VALID,70,VALID,3.22695,
2010-10-05, 02:10:04,VALID,1008.11,VALID,0,VALID,87.6733,VALID,0,VALID,24.5886,VALID,92,VALID,3.40781,
2010-10-05, 02:11:04,VALID,1008.09,VALID,0,VALID,89.9534,VALID,0,VALID,24.4911,VALID,106,VALID,2.42969,
2010-10-05, 02:12:04,VALID,1008.09,VALID,0,VALID,87.7648,VALID,0,VALID,24.3566,VALID,86,VALID,4.43242,
2010-10-05, 02:13:04,VALID,1008.05,VALID,0,VALID,90.6778,VALID,0,VALID,24.1404,VALID,74,VALID,2.96797,
2010-10-05, 02:14:04,VALID,1008.03,VALID,0,VALID,93.2858,VALID,0,VALID,24.0058,VALID,30,VALID,3.79492,
2010-10-05, 02:15:04,VALID,1008.07,VALID,0,VALID,95.3067,VALID,0,VALID,23.7525,VALID,87,VALID,3.92539,
2010-10-05, 02:16:04,VALID,1008.01,VALID,0,VALID,97.7698,VALID,0,VALID,23.5169,VALID,93,VALID,2.95625,
2010-10-05, 02:17:04,VALID,1008.06,VALID,0,VALID,99.2416,VALID,0,VALID,23.3433,VALID,94,VALID,3.75781,
2010-10-05, 02:18:04,VALID,1008.07,VALID,0,VALID,100.042,VALID,0.105969,VALID,23.1662,VALID,71,VALID,2.82031,
2010-10-05, 02:19:04,VALID,1008.04,VALID,0.5,VALID,100.812,VALID,0,VALID,23.0493,VALID,78,VALID,1.74063,
2010-10-05, 02:20:04,VALID,1008.09,VALID,0.5,VALID,101.4,VALID,0.105969,VALID,22.9342,VALID,76,VALID,1.88984,
2010-10-05, 02:21:04,VALID,1008.05,VALID,0.5,VALID,101.933,VALID,0,VALID,22.7783,VALID,76,VALID,3.42227,
2010-10-05, 02:22:04,VALID,1008.05,VALID,0,VALID,102.383,VALID,0,VALID,22.6987,VALID,69,VALID,2.81719,
2010-10-05, 02:23:04,VALID,1008.02,VALID,0.5,VALID,102.696,VALID,0,VALID,22.6208,VALID,92,VALID,2.25391,
2010-10-05, 02:24:04,VALID,1008.01,VALID,0.5,VALID,102.879,VALID,0,VALID,22.5818,VALID,60,VALID,3.16523,
2010-10-05, 02:25:04,VALID,1007.96,VALID,0.5,VALID,103.009,VALID,0,VALID,22.5429,VALID,35,VALID,1.23125,
2010-10-05, 02:26:04,VALID,1007.89,VALID,0,VALID,103.138,VALID,0,VALID,22.5039,VALID,38,VALID,2.02969,
2010-10-05, 02:27:04,VALID,1007.83,VALID,0,VALID,103.23,VALID,0.105969,VALID,22.4844,VALID,57,VALID,1.48711,
2010-10-05, 02:28:04,VALID,1007.77,VALID,0,VALID,103.276,VALID,0,VALID,22.465,VALID,73,VALID,1.76445,
2010-10-05, 02:29:04,VALID,1007.73,VALID,0.5,VALID,103.291,VALID,0,VALID,22.465,VALID,353,VALID,1.12148,
2010-10-05, 02:30:04,VALID,1007.68,VALID,0,VALID,103.337,VALID,0,VALID,22.4667,VALID,94,VALID,1.42148,
2010-10-05, 02:31:04,VALID,1007.7,VALID,0.5,VALID,103.344,VALID,0,VALID,22.4455,VALID,103,VALID,0.951953,
2010-10-05, 02:32:04,VALID,1007.67,VALID,0,VALID,103.375,VALID,0,VALID,22.4277,VALID,61,VALID,2.42617,
2010-10-05, 02:33:04,VALID,1007.71,VALID,0,VALID,103.359,VALID,0,VALID,22.4065,VALID,48,VALID,1.20938,
2010-10-05, 02:34:04,VALID,1007.69,VALID,0,VALID,103.352,VALID,0,VALID,22.4065,VALID,101,VALID,1.54961,
2010-10-05, 02:35:04,VALID,1007.71,VALID,0.5,VALID,103.352,VALID,0,VALID,22.4277,VALID,52,VALID,1.66992,
2010-10-05, 02:36:04,VALID,1007.67,VALID,0,VALID,103.359,VALID,0.105969,VALID,22.4065,VALID,335,VALID,0.707812,
2010-10-05, 02:37:04,VALID,1007.65,VALID,0,VALID,103.344,VALID,0.105969,VALID,22.4065,VALID,183,VALID,0.487109,
2010-10-05, 02:38:04,VALID,1007.56,VALID,0,VALID,103.337,VALID,0.105969,VALID,22.4082,VALID,50,VALID,0.54375,
2010-10-05, 02:39:04,VALID,1007.56,VALID,0,VALID,103.321,VALID,0,VALID,22.4065,VALID,55,VALID,0.836719,
2010-10-05, 02:40:04,VALID,1007.54,VALID,0,VALID,103.314,VALID,0,VALID,22.4082,VALID,23,VALID,0.925781,
2010-10-05, 02:41:04,VALID,1007.5,VALID,0,VALID,103.314,VALID,0,VALID,22.4082,VALID,318,VALID,0.808203,
2010-10-05, 02:42:04,VALID,1007.5,VALID,0,VALID,103.283,VALID,0.105969,VALID,22.4082,VALID,16,VALID,0.489062,
2010-10-05, 02:43:04,VALID,1007.51,VALID,0.5,VALID,103.26,VALID,0,VALID,22.387,VALID,90,VALID,1.20781,
2010-10-05, 02:44:04,VALID,1007.47,VALID,0,VALID,103.26,VALID,0.105969,VALID,22.4065,VALID,30,VALID,0.405859,
2010-10-05, 02:45:04,VALID,1007.47,VALID,0,VALID,103.268,VALID,0.105969,VALID,22.426,VALID,39,VALID,0.771094,
2010-10-05, 02:46:04,VALID,1007.44,VALID,0,VALID,103.268,VALID,0,VALID,22.4065,VALID,46,VALID,0.99375,
2010-10-05, 02:47:04,VALID,1007.41,VALID,0,VALID,103.23,VALID,0.105969,VALID,22.387,VALID,8,VALID,0.785937,
2010-10-05, 02:48:04,VALID,1007.45,VALID,0,VALID,103.237,VALID,0.105969,VALID,22.4065,VALID,70,VALID,1.29531,
2010-10-05, 02:49:04,VALID,1007.4,VALID,0,VALID,103.253,VALID,0,VALID,22.4065,VALID,66,VALID,0.670703,
2010-10-05, 02:50:04,VALID,1007.42,VALID,0,VALID,103.199,VALID,0,VALID,22.4065,VALID,80,VALID,0.851172,
2010-10-05, 02:51:04,VALID,1007.43,VALID,0,VALID,103.199,VALID,0.105969,VALID,22.387,VALID,77,VALID,1.98672,
2010-10-05, 02:52:04,VALID,1007.42,VALID,0,VALID,103.176,VALID,0,VALID,22.4082,VALID,360,VALID,0.309375,
2010-10-05, 02:53:04,VALID,1007.39,VALID,0,VALID,103.161,VALID,0,VALID,22.4489,VALID,118,VALID,0.6375,
2010-10-05, 02:54:04,VALID,1007.36,VALID,0,VALID,103.161,VALID,0,VALID,22.4082,VALID,69,VALID,0.683203,
2010-10-05, 02:55:04,VALID,1007.37,VALID,0,VALID,103.184,VALID,0,VALID,22.4082,VALID,99,VALID,0.630469,
2010-10-05, 02:56:04,VALID,1007.31,VALID,0,VALID,103.184,VALID,0,VALID,22.4082,VALID,12,VALID,0.3625,
2010-10-05, 02:57:04,VALID,1007.32,VALID,0,VALID,103.169,VALID,0,VALID,22.4099,VALID,30,VALID,0.285156,
2010-10-05, 02:58:04,VALID,1007.33,VALID,0,VALID,103.131,VALID,0,VALID,22.4294,VALID,88,VALID,0.412891,
2010-10-05, 02:59:04,VALID,1007.32,VALID,0,VALID,103.108,VALID,0,VALID,22.4294,VALID,101,VALID,0.757813,
2010-10-05, 03:00:04,VALID,1007.27,VALID,0,VALID,103.161,VALID,0,VALID,22.4082,VALID,14,VALID,0.918359,
2010-10-05, 03:01:04,VALID,1007.28,VALID,0,VALID,103.123,VALID,0,VALID,22.4277,VALID,37,VALID,0.217969,
2010-10-05, 03:02:04,VALID,1007.25,VALID,0,VALID,103.077,VALID,0,VALID,22.4472,VALID,47,VALID,0.320703,
2010-10-05, 03:03:04,VALID,1007.22,VALID,0,VALID,103.085,VALID,0.105969,VALID,22.4065,VALID,23,VALID,0.533984,
2010-10-05, 03:04:04,VALID,1007.25,VALID,0,VALID,103.085,VALID,0.105969,VALID,22.4472,VALID,21,VALID,0.336719,
2010-10-05, 03:05:04,VALID,1007.26,VALID,0,VALID,103.07,VALID,0,VALID,22.4065,VALID,65,VALID,0.176953,
2010-10-05, 03:06:04,VALID,1007.24,VALID,0,VALID,103.077,VALID,0,VALID,22.4277,VALID,277,VALID,0.380469,
2010-10-05, 03:07:04,VALID,1007.26,VALID,0,VALID,103.077,VALID,0.105969,VALID,22.4277,VALID,87,VALID,0.605469,
2010-10-05, 03:08:04,VALID,1007.28,VALID,0,VALID,103.093,VALID,0,VALID,22.4277,VALID,81,VALID,0.053125,
2010-10-05, 03:09:04,VALID,1007.29,VALID,0,VALID,103.07,VALID,0.105969,VALID,22.4277,VALID,81,VALID,0.18125,
2010-10-05, 03:10:04,VALID,1007.3,VALID,0,VALID,103.077,VALID,0.105969,VALID,22.4065,VALID,81,VALID,0.252734,
2010-10-05, 03:11:04,VALID,1007.26,VALID,0,VALID,103.054,VALID,0.105969,VALID,22.4065,VALID,81,VALID,0.338672,
2010-10-05, 03:12:04,VALID,1007.22,VALID,0,VALID,103.039,VALID,0.105969,VALID,22.4065,VALID,81,VALID,0.16875,
2010-10-05, 03:13:04,VALID,1007.17,VALID,0,VALID,103.024,VALID,0.105969,VALID,22.4065,VALID,81,VALID,0.198828,
2010-10-05, 03:14:04,VALID,1007.17,VALID,0,VALID,103.032,VALID,0.105969,VALID,22.387,VALID,202,VALID,0.437891,
2010-10-05, 03:15:04,VALID,1007.13,VALID,0,VALID,103.039,VALID,0.105969,VALID,22.4277,VALID,202,VALID,0.303125,
2010-10-05, 03:16:04,VALID,1007.14,VALID,0,VALID,103.024,VALID,0.105969,VALID,22.4065,VALID,202,VALID,0.150781,
2010-10-05, 03:17:04,VALID,1007.15,VALID,0,VALID,103.032,VALID,0.105969,VALID,22.4065,VALID,202,VALID,0.157422,
2010-10-05, 03:18:04,VALID,1007.14,VALID,0,VALID,103.07,VALID,0.105969,VALID,22.387,VALID,202,VALID,0.257031,
2010-10-05, 03:19:04,VALID,1007.13,VALID,0,VALID,103.062,VALID,0,VALID,22.4065,VALID,202,VALID,0,
2010-10-05, 03:20:04,VALID,1007.12,VALID,0,VALID,103.07,VALID,0.105969,VALID,22.387,VALID,202,VALID,0.270312,
2010-10-05, 03:21:04,VALID,1007.12,VALID,0,VALID,103.1,VALID,0.105969,VALID,22.3887,VALID,90,VALID,0.486328,
2010-10-05, 03:22:04,VALID,1007.1,VALID,0,VALID,103.054,VALID,0,VALID,22.3693,VALID,95,VALID,1.04922,
2010-10-05, 03:23:04,VALID,1007.06,VALID,0,VALID,103.062,VALID,0,VALID,22.3693,VALID,92,VALID,0.564062,
2010-10-05, 03:24:04,VALID,1007.04,VALID,0,VALID,103.039,VALID,0,VALID,22.3693,VALID,70,VALID,0.878125,
2010-10-05, 03:25:04,VALID,1007.02,VALID,0,VALID,103.062,VALID,0,VALID,22.3693,VALID,70,VALID,0.322266,
2010-10-05, 03:26:04,VALID,1006.99,VALID,0,VALID,103.047,VALID,0,VALID,22.3904,VALID,80,VALID,0.499609,
2010-10-05, 03:27:04,VALID,1006.92,VALID,0,VALID,103.001,VALID,0,VALID,22.3887,VALID,82,VALID,0.503906,
2010-10-05, 03:28:04,VALID,1006.91,VALID,0,VALID,103.016,VALID,0,VALID,22.3887,VALID,85,VALID,0.735547,
2010-10-05, 03:29:04,VALID,1006.89,VALID,0,VALID,103.016,VALID,0,VALID,22.3693,VALID,94,VALID,0.7875,
2010-10-05, 03:30:04,VALID,1006.88,VALID,0,VALID,103.009,VALID,0,VALID,22.3887,VALID,93,VALID,0.451172,
2010-10-05, 03:31:04,VALID,1006.85,VALID,0,VALID,103.001,VALID,0,VALID,22.3887,VALID,93,VALID,0.561328,
2010-10-05, 03:32:04,VALID,1006.85,VALID,0,VALID,103.016,VALID,0,VALID,22.3887,VALID,93,VALID,0.305469,
2010-10-05, 03:33:04,VALID,1006.82,VALID,0.5,VALID,103.039,VALID,0,VALID,22.3498,VALID,73,VALID,0.652734,
2010-10-05, 03:34:04,VALID,1006.8,VALID,0,VALID,103.009,VALID,0,VALID,22.3693,VALID,72,VALID,0.0410156,
2010-10-05, 03:35:04,VALID,1006.76,VALID,0,VALID,103.001,VALID,0,VALID,22.3904,VALID,72,VALID,0.242578,
2010-10-05, 03:36:04,VALID,1006.71,VALID,0,VALID,103.001,VALID,0,VALID,22.3498,VALID,36,VALID,0.205078,
2010-10-05, 03:37:04,VALID,1006.68,VALID,0,VALID,103.001,VALID,0,VALID,22.371,VALID,36,VALID,0.146875,
2010-10-05, 03:38:04,VALID,1006.67,VALID,0,VALID,102.986,VALID,0,VALID,22.3498,VALID,36,VALID,0.0175781,
2010-10-05, 03:39:04,VALID,1006.68,VALID,0,VALID,102.971,VALID,0,VALID,22.3693,VALID,36,VALID,0.453125,
2010-10-05, 03:40:04,VALID,1006.66,VALID,0,VALID,102.986,VALID,0,VALID,22.3904,VALID,36,VALID,0,
2010-10-05, 03:41:04,VALID,1006.63,VALID,0,VALID,102.986,VALID,0,VALID,22.3693,VALID,36,VALID,0,
2010-10-05, 03:42:04,VALID,1006.65,VALID,0,VALID,102.971,VALID,0,VALID,22.3693,VALID,36,VALID,0,
2010-10-05, 03:43:04,VALID,1006.64,VALID,0,VALID,102.955,VALID,0,VALID,22.3693,VALID,36,VALID,0,
2010-10-05, 03:44:04,VALID,1006.63,VALID,0,VALID,102.94,VALID,0,VALID,22.3904,VALID,36,VALID,0,
2010-10-05, 03:45:04,VALID,1006.59,VALID,0,VALID,102.948,VALID,0,VALID,22.3904,VALID,36,VALID,0,
2010-10-05, 03:46:04,VALID,1006.55,VALID,0,VALID,102.932,VALID,0,VALID,22.3887,VALID,352,VALID,0.492578,
2010-10-05, 03:47:04,VALID,1006.51,VALID,0,VALID,102.932,VALID,0,VALID,22.3693,VALID,306,VALID,0.478125,